Time,TemperatureF,DewpointF,PressureIn,WindDirection,WindDirectionDegrees,WindSpeedMPH,WindSpeedGustMPH,Humidity,HourlyPrecipIn,Conditions,Clouds,dailyrainin,SoftwareType,DateUTC
2013-04-30 00:06:00,71.2,64.3,28.87,SSW,202,0.0,-999.0,79,-99.99,,,0.00,Acu-Link.com,2013-04-30 05:06:00,
2013-04-30 00:21:00,71.2,64.3,28.87,SSW,202,0.0,-999.0,79,-99.99,,,0.00,Acu-Link.com,2013-04-30 05:21:00,
2013-04-30 00:36:00,71.6,64.7,28.87,SSW,202,0.0,-999.0,79,-99.99,,,0.00,Acu-Link.com,2013-04-30 05:36:00,
2013-04-30 00:51:00,72.3,64.3,28.87,SSW,202,0.0,-999.0,76,-99.99,,,0.00,Acu-Link.com,2013-04-30 05:51:00,
2013-04-30 01:06:00,72.3,64.3,28.87,SW,225,0.0,-999.0,76,-99.99,,,0.00,Acu-Link.com,2013-04-30 06:06:00,
2013-04-30 01:21:00,71.8,64.2,28.88,SSW,202,0.0,-999.0,77,-99.99,,,0.00,Acu-Link.com,2013-04-30 06:21:00,
2013-04-30 01:37:00,71.8,63.8,28.87,SW,225,0.0,-999.0,76,-99.99,,,0.00,Acu-Link.com,2013-04-30 06:37:00,
2013-04-30 01:52:00,71.4,63.4,28.87,SW,225,0.0,-999.0,76,-99.99,,,0.00,Acu-Link.com,2013-04-30 06:52:00,
2013-04-30 02:07:00,71.2,62.9,28.88,SW,225,0.0,-999.0,75,-99.99,,,0.00,Acu-Link.com,2013-04-30 07:07:00,
2013-04-30 02:22:00,71.1,62.8,28.87,SSW,202,0.0,-999.0,75,-99.99,,,0.00,Acu-Link.com,2013-04-30 07:22:00,
2013-04-30 02:37:00,70.9,62.2,28.87,SSW,202,0.0,-999.0,74,-99.99,,,0.00,Acu-Link.com,2013-04-30 07:37:00,
2013-04-30 02:52:00,70.9,61.8,28.87,SW,225,0.0,-999.0,73,-99.99,,,0.00,Acu-Link.com,2013-04-30 07:52:00,
2013-04-30 03:07:00,70.5,61.4,28.88,SW,225,0.0,-999.0,73,-99.99,,,0.00,Acu-Link.com,2013-04-30 08:07:00,
2013-04-30 03:23:00,70.7,61.2,28.88,SW,225,0.0,-999.0,72,-99.99,,,0.00,Acu-Link.com,2013-04-30 08:23:00,
2013-04-30 03:38:00,70.3,60.8,28.87,SW,225,0.0,-999.0,72,-99.99,,,0.00,Acu-Link.com,2013-04-30 08:38:00,
2013-04-30 03:53:00,70.9,60.6,28.87,SW,225,0.0,-999.0,70,-99.99,,,0.00,Acu-Link.com,2013-04-30 08:53:00,
2013-04-30 04:08:00,70.7,59.6,28.87,SW,225,0.0,-999.0,68,-99.99,,,0.00,Acu-Link.com,2013-04-30 09:08:00,
2013-04-30 04:23:00,70.3,58.8,28.87,SW,225,0.0,-999.0,67,-99.99,,,0.00,Acu-Link.com,2013-04-30 09:23:00,
2013-04-30 04:38:00,70.3,58.8,28.87,South,180,0.0,-999.0,67,-99.99,,,0.00,Acu-Link.com,2013-04-30 09:38:00,
2013-04-30 04:53:00,69.8,58.3,28.87,SW,225,0.0,-999.0,67,-99.99,,,0.00,Acu-Link.com,2013-04-30 09:53:00,
2013-04-30 05:08:00,70.0,58.1,28.87,SW,225,0.0,-999.0,66,-99.99,,,0.00,Acu-Link.com,2013-04-30 10:08:00,
2013-04-30 05:23:00,69.8,57.1,28.88,SW,225,0.0,-999.0,64,-99.99,,,0.00,Acu-Link.com,2013-04-30 10:23:00,
2013-04-30 05:39:00,69.8,57.1,28.89,SSW,202,0.0,-999.0,64,-99.99,,,0.00,Acu-Link.com,2013-04-30 10:39:00,
2013-04-30 05:54:00,69.6,56.4,28.89,SSW,202,0.0,-999.0,63,-99.99,,,0.00,Acu-Link.com,2013-04-30 10:54:00,
2013-04-30 06:09:00,69.6,56.0,28.90,SW,225,0.0,-999.0,62,-99.99,,,0.00,Acu-Link.com,2013-04-30 11:09:00,
2013-04-30 06:24:00,69.3,55.7,28.90,WSW,247,0.0,-999.0,62,-99.99,,,0.00,Acu-Link.com,2013-04-30 11:24:00,
2013-04-30 06:39:00,68.5,55.4,28.91,SSW,202,0.0,-999.0,63,-99.99,,,0.00,Acu-Link.com,2013-04-30 11:39:00,
2013-04-30 06:54:00,69.1,55.1,28.92,SSW,202,0.0,-999.0,61,-99.99,,,0.00,Acu-Link.com,2013-04-30 11:54:00,
2013-04-30 07:09:00,69.6,55.1,28.93,WSW,247,0.0,-999.0,60,-99.99,,,0.00,Acu-Link.com,2013-04-30 12:09:00,
2013-04-30 07:24:00,69.8,54.8,28.94,South,180,0.0,-999.0,59,-99.99,,,0.00,Acu-Link.com,2013-04-30 12:24:00,
2013-04-30 07:39:00,70.2,54.7,28.94,SW,225,0.0,-999.0,58,-99.99,,,0.00,Acu-Link.com,2013-04-30 12:39:00,
2013-04-30 07:55:00,70.9,54.9,28.95,SW,225,0.0,-999.0,57,-99.99,,,0.00,Acu-Link.com,2013-04-30 12:55:00,
2013-04-30 08:10:00,72.9,55.3,28.96,NNW,337,0.0,-999.0,54,-99.99,,,0.00,Acu-Link.com,2013-04-30 13:10:00,
2013-04-30 08:25:00,75.2,54.7,28.96,SE,135,0.0,-999.0,49,-99.99,,,0.00,Acu-Link.com,2013-04-30 13:25:00,
2013-04-30 08:40:00,77.7,55.3,28.97,West,270,0.0,-999.0,46,-99.99,,,0.00,Acu-Link.com,2013-04-30 13:40:00,
2013-04-30 08:55:00,74.8,53.2,28.97,SSW,202,0.0,-999.0,47,-99.99,,,0.00,Acu-Link.com,2013-04-30 13:55:00,
2013-04-30 09:10:00,74.7,52.5,28.98,SSW,202,0.0,-999.0,46,-99.99,,,0.00,Acu-Link.com,2013-04-30 14:10:00,
2013-04-30 09:25:00,76.1,53.2,28.99,SSW,202,0.0,-999.0,45,-99.99,,,0.00,Acu-Link.com,2013-04-30 14:25:00,
2013-04-30 09:40:00,77.2,54.8,28.98,SSW,202,0.0,-999.0,46,-99.99,,,0.00,Acu-Link.com,2013-04-30 14:40:00,
2013-04-30 09:55:00,77.0,55.2,28.98,South,180,0.0,-999.0,47,-99.99,,,0.00,Acu-Link.com,2013-04-30 14:55:00,
2013-04-30 10:11:00,79.7,56.5,28.98,WSW,247,0.0,-999.0,45,-99.99,,,0.00,Acu-Link.com,2013-04-30 15:11:00,
2013-04-30 10:26:00,80.4,57.1,28.98,South,180,0.0,-999.0,45,-99.99,,,0.00,Acu-Link.com,2013-04-30 15:26:00,
2013-04-30 10:41:00,83.1,58.9,28.98,SW,225,0.0,-999.0,44,-99.99,,,0.00,Acu-Link.com,2013-04-30 15:41:00,
2013-04-30 10:56:00,83.8,58.9,28.98,WSW,247,0.0,-999.0,43,-99.99,,,0.00,Acu-Link.com,2013-04-30 15:56:00,
2013-04-30 11:11:00,83.7,59.4,28.98,SW,225,0.0,-999.0,44,-99.99,,,0.00,Acu-Link.com,2013-04-30 16:11:00,
2013-04-30 11:26:00,85.6,60.5,28.98,West,270,0.0,-999.0,43,-99.99,,,0.00,Acu-Link.com,2013-04-30 16:26:00,
2013-04-30 11:41:00,87.6,61.0,28.99,WNW,292,0.0,-999.0,41,-99.99,,,0.00,Acu-Link.com,2013-04-30 16:41:00,
2013-04-30 11:56:00,87.6,60.3,28.99,NNW,337,0.0,-999.0,40,-99.99,,,0.00,Acu-Link.com,2013-04-30 16:56:00,
2013-04-30 12:11:00,86.9,61.0,28.99,West,270,0.0,-999.0,42,-99.99,,,0.00,Acu-Link.com,2013-04-30 17:11:00,
2013-04-30 12:27:00,87.1,61.2,28.98,West,270,0.0,-999.0,42,-99.99,,,0.00,Acu-Link.com,2013-04-30 17:27:00,
2013-04-30 12:42:00,86.9,61.0,28.98,SSW,202,0.0,-999.0,42,-99.99,,,0.00,Acu-Link.com,2013-04-30 17:42:00,
2013-04-30 12:57:00,88.7,61.2,28.98,SSE,157,0.0,-999.0,40,-99.99,,,0.00,Acu-Link.com,2013-04-30 17:57:00,
2013-04-30 13:12:00,87.4,60.8,28.98,WSW,247,0.0,-999.0,41,-99.99,,,0.00,Acu-Link.com,2013-04-30 18:12:00,
2013-04-30 13:27:00,88.7,61.2,28.98,WNW,292,0.0,-999.0,40,-99.99,,,0.00,Acu-Link.com,2013-04-30 18:27:00,
2013-04-30 13:42:00,87.8,61.1,28.97,NW,315,0.0,-999.0,41,-99.99,,,0.00,Acu-Link.com,2013-04-30 18:42:00,
2013-04-30 13:57:00,89.1,62.3,28.98,WSW,247,0.0,-999.0,41,-99.99,,,0.00,Acu-Link.com,2013-04-30 18:57:00,
2013-04-30 14:12:00,88.0,60.6,28.98,SSW,202,0.0,-999.0,40,-99.99,,,0.00,Acu-Link.com,2013-04-30 19:12:00,
2013-04-30 14:27:00,88.7,61.9,28.98,South,180,0.0,-999.0,41,-99.99,,,0.00,Acu-Link.com,2013-04-30 19:27:00,
2013-04-30 14:43:00,89.4,61.9,28.98,WSW,247,0.0,-999.0,40,-99.99,,,0.00,Acu-Link.com,2013-04-30 19:43:00,
2013-04-30 14:58:00,87.3,62.0,28.99,SW,225,0.0,-999.0,43,-99.99,,,0.00,Acu-Link.com,2013-04-30 19:58:00,
2013-04-30 15:13:00,89.4,62.6,28.98,NW,315,0.0,-999.0,41,-99.99,,,0.00,Acu-Link.com,2013-04-30 20:13:00,
2013-04-30 15:28:00,88.3,61.6,28.98,WSW,247,0.0,-999.0,41,-99.99,,,0.00,Acu-Link.com,2013-04-30 20:28:00,
2013-04-30 15:43:00,85.8,59.3,28.98,NW,315,0.0,-999.0,41,-99.99,,,0.00,Acu-Link.com,2013-04-30 20:43:00,
2013-04-30 15:58:00,81.5,56.8,28.99,NNW,337,0.0,-999.0,43,-99.99,,,0.00,Acu-Link.com,2013-04-30 20:58:00,
2013-04-30 16:13:00,81.9,57.8,28.99,NNE,22,0.0,-999.0,44,-99.99,,,0.00,Acu-Link.com,2013-04-30 21:13:00,
2013-04-30 16:28:00,81.3,57.3,28.99,NE,45,0.0,-999.0,44,-99.99,,,0.00,Acu-Link.com,2013-04-30 21:28:00,
2013-04-30 16:43:00,80.2,56.3,29.00,NNE,22,0.0,-999.0,44,-99.99,,,0.00,Acu-Link.com,2013-04-30 21:43:00,
2013-04-30 16:58:00,81.0,56.4,29.00,NE,45,0.0,-999.0,43,-99.99,,,0.00,Acu-Link.com,2013-04-30 21:58:00,
2013-04-30 17:14:00,82.4,57.6,29.00,NNE,22,0.0,-999.0,43,-99.99,,,0.00,Acu-Link.com,2013-04-30 22:14:00,
2013-04-30 17:29:00,82.6,57.8,29.00,NNE,22,0.0,-999.0,43,-99.99,,,0.00,Acu-Link.com,2013-04-30 22:29:00,
2013-04-30 17:44:00,85.3,59.6,29.00,ENE,67,0.0,-999.0,42,-99.99,,,0.00,Acu-Link.com,2013-04-30 22:44:00,
2013-04-30 17:59:00,84.2,57.2,29.01,NE,45,0.0,-999.0,40,-99.99,,,0.00,Acu-Link.com,2013-04-30 22:59:00,
2013-04-30 18:14:00,83.1,58.9,29.02,NNE,22,0.0,-999.0,44,-99.99,,,0.00,Acu-Link.com,2013-04-30 23:14:00,
2013-04-30 18:29:00,81.7,57.6,29.02,NNE,22,0.0,-999.0,44,-99.99,,,0.00,Acu-Link.com,2013-04-30 23:29:00,
2013-04-30 18:44:00,81.5,58.7,29.02,ENE,67,0.0,-999.0,46,-99.99,,,0.00,Acu-Link.com,2013-04-30 23:44:00,
2013-04-30 18:59:00,80.2,58.1,29.02,WSW,247,0.0,-999.0,47,-99.99,,,0.00,Acu-Link.com,2013-04-30 23:59:00,
2013-04-30 19:14:00,79.2,57.8,29.03,ESE,112,0.0,-999.0,48,-99.99,,,0.00,Acu-Link.com,2013-05-01 00:14:00,
2013-04-30 19:30:00,77.7,58.1,29.05,WSW,247,0.0,-999.0,51,-99.99,,,0.00,Acu-Link.com,2013-05-01 00:30:00,
2013-04-30 19:45:00,77.0,56.9,29.04,NW,315,0.0,-999.0,50,-99.99,,,0.00,Acu-Link.com,2013-05-01 00:45:00,
2013-04-30 20:00:00,75.7,56.8,29.04,North,0,0.0,-999.0,52,-99.99,,,0.00,Acu-Link.com,2013-05-01 01:00:00,
2013-04-30 20:15:00,74.8,56.5,29.05,NNE,22,0.0,-999.0,53,-99.99,,,0.00,Acu-Link.com,2013-05-01 01:15:00,
2013-04-30 20:30:00,73.9,56.2,29.05,NE,45,0.0,-999.0,54,-99.99,,,0.00,Acu-Link.com,2013-05-01 01:30:00,
2013-04-30 20:45:00,72.7,55.1,29.06,North,0,0.0,-999.0,54,-99.99,,,0.00,Acu-Link.com,2013-05-01 01:45:00,
2013-04-30 21:00:00,72.0,55.9,29.08,NNW,337,0.0,-999.0,57,-99.99,,,0.00,Acu-Link.com,2013-05-01 02:00:00,
2013-04-30 21:15:00,72.0,55.9,29.10,WNW,292,0.0,-999.0,57,-99.99,,,0.00,Acu-Link.com,2013-05-01 02:15:00,
2013-04-30 21:30:00,71.4,53.9,29.12,North,0,0.0,-999.0,54,-99.99,,,0.00,Acu-Link.com,2013-05-01 02:30:00,
2013-04-30 21:46:00,70.0,51.6,29.12,NE,45,0.0,-999.0,52,-99.99,,,0.00,Acu-Link.com,2013-05-01 02:46:00,
2013-04-30 22:01:00,69.1,51.2,29.13,NE,45,0.0,-999.0,53,-99.99,,,0.00,Acu-Link.com,2013-05-01 03:01:00,
2013-04-30 22:16:00,67.8,51.0,29.13,NE,45,0.0,-999.0,55,-99.99,,,0.00,Acu-Link.com,2013-05-01 03:16:00,
2013-04-30 22:31:00,66.0,51.3,29.15,North,0,0.0,-999.0,59,-99.99,,,0.00,Acu-Link.com,2013-05-01 03:31:00,
2013-04-30 22:46:00,64.8,50.6,29.15,East,90,0.0,-999.0,60,-99.99,,,0.00,Acu-Link.com,2013-05-01 03:46:00,
2013-04-30 23:01:00,64.2,49.6,29.16,ENE,67,0.0,-999.0,59,-99.99,,,0.00,Acu-Link.com,2013-05-01 04:01:00,
2013-04-30 23:16:00,62.6,49.4,29.15,SSE,157,0.0,-999.0,62,-99.99,,,0.00,Acu-Link.com,2013-05-01 04:16:00,
2013-04-30 23:31:00,61.0,49.1,29.15,NE,45,0.0,-999.0,65,-99.99,,,0.00,Acu-Link.com,2013-05-01 04:31:00,
2013-04-30 23:46:00,60.3,48.9,29.16,NNE,22,0.0,-999.0,66,-99.99,,,0.00,Acu-Link.com,2013-05-01 04:46:00,